Regional Weather Roundup
Issued by NWS Jackson, KY

Home | Current Version | Previous Version | Graphics & Text | Print | Product List | Glossary On
Versions: 1 2 3 4 5 6 7 8 9 10 11 12 13 14 15 16 17 18 19 20 21 22 23 24 25 26 27 28 29 30 31 32 33 34 35 36 37 38 39 40 41 42 43 44 45 46 47 48 49 50
000
ASUS43 KJKL 181310
RWRJKL

EAST KENTUCKY HOURLY WEATHER ROUNDUP
NATIONAL WEATHER SERVICE JACKSON KY
900 AM EDT SAT APR 18 2015

NOTE: "FAIR" INDICATES FEW OR NO CLOUDS BELOW 12,000 FEET WITH
NO SIGNIFICANT WEATHER AND/OR OBSTRUCTIONS TO VISIBILITY.

* THESE REPORTS ARE NOT UNDER NWS QUALITY CONTROL AND MAY NOT
  REPORT WEATHER SUCH AS PRECIPITATION AND FOG.

KYZ079-080-083-085-087-088-110-112-115-119-120-181400
...EASTERN KENTUCKY...

CITY           SKY/WX    TMP DP  RH WIND       PRES   REMARKS
JACKSON        SUNNY     63  53  70 CALM      30.07R
LONDON         MOSUNNY   62  55  77 CALM      30.06R
SOMERSET*      MOSUNNY   54  54 100 CALM      30.06F
MONTICELLO*    CLOUDY    57  57 100 CALM      30.08S
MIDDLESBORO*   FOG       55  55 100 CALM      30.07S VSB 1/2
HARLAN APT*    PTSUNNY   55  55 100 SE3       30.07R
HAZARD APT*    SUNNY     59  59 100 CALM      30.07R
BLACK MTN*       N/A     61  55  82 NE1         N/A
PIKEVILLE APT* SUNNY     57  55  94 S6        30.06S
BIG SANDY*     SUNNY     61  54  78 CALM      30.05S
MOREHEAD APT*  SUNNY     61  52  72 CALM      30.08R
$$

KYZ035-036-041-042-044-050-067-078-099-181400
...CENTRAL KENTUCKY...

CITY           SKY/WX    TMP DP  RH WIND       PRES   REMARKS
MT STERLING*   SUNNY     63  54  72 SE3       30.08R
FLEMING/MASON* SUNNY     59  52  77 CALM      30.08R
DANVILLE*      PTSUNNY   59  57  94 CALM      30.07S
RICHMOND*      PTSUNNY   57  57 100 CALM      30.06S
LEXINGTON      SUNNY     62  56  80 CALM      30.06R
FRANKFORT      SUNNY     59  54  83 CALM      30.04S
$$

KYZ091>093-OHZ055-061-077-WVZ005-015-034-035-042-181400
...SOUTHERN OHIO/WEST VIRGINIA...

CITY           SKY/WX    TMP DP  RH WIND       PRES   REMARKS
COVINGTON      MOSUNNY   62  48  60 NE5       30.07R
COLUMBUS       MOSUNNY   57  48  72 CALM      30.07R
DAYTON         MOSUNNY   62  48  60 CALM      30.08R
WILMINGTON     SUNNY     62  49  62 CALM      30.07S
HUNTINGTON     SUNNY     60  52  74 CALM      30.04S
CHARLESTON     MOSUNNY   55  54  96 CALM      30.05S
PINEVILLE*     SUNNY     56  56 100 MISG      30.11F
BECKLEY        SUNNY     63  54  72 CALM      30.08F
BLUEFIELD      SUNNY     63  51  65 VRB3      30.10S
$$

VAZ002-007-008-TNZ017-027-036-066-071-181400
...SOUTHWEST VIRGINIA/EAST TENNESSEE...

CITY           SKY/WX    TMP DP  RH WIND       PRES   REMARKS
WISE*            N/A     64  52  63 CALM      30.11R
JONESVILLE*    MOSUNNY   57  57 100 CALM      30.08S
ABINGDON*      SUNNY     63  60  90 E5        30.08R
BRISTOL        MOSUNNY   58  57  97 CALM      30.07R
KNOXVILLE      FOG       60  59  96 NE6       30.02S VSB 1/2
OAK RIDGE      CLOUDY    59  58  96 CALM      30.05S FOG
CROSSVILLE     PTSUNNY   58  55  90 N6        30.05F
NASHVILLE      PTSUNNY   62  60  93 NE5       30.01F FOG
$$

...KEY TO REMARKS...
VSB - VISIBILITY IN MILES
WCI - WIND CHILL INDEX
HX  - HEAT INDEX

$$



USA.gov is the U.S. government's official web portal to all federal, state and local government web resources and services.